This demonstration page uses our WeatherBlox Daily Observations layout. Learn more.

Left ArrowRight Arrow

39.29038, -76.61219

Hourly Observations for October 10, 2016

Temp ( °F °C ) Dew Point ( °F °C ) Humidity (%) Winds ( mph kmh ) Pressure ( in mb ) Visibility ( mi km ) Precip ( " mm )
12:54 am 00:54 undefined 57 13.9 37 2.8 47 47 undefined N/A 30.19 1023 N/A 0.00 0.00
1:54 am 01:54 undefined 55 12.8 36 2.2 49 49 undefined N/A 30.21 1023 N/A 0.00 0.00
2:54 am 02:54 undefined 54 12.2 35 1.7 49 49 undefined N/A 30.22 1023 N/A 0.00 0.00
3:54 am 03:54 undefined 53 11.7 35 1.7 51 51 undefined N/A 30.22 1024 N/A 0.00 0.00
4:54 am 04:54 undefined 52 11.1 36 2.2 55 55 undefined N/A 30.23 1024 N/A 0.00 0.00
5:54 am 05:54 undefined 51 10.6 36 2.2 56 56 undefined N/A 30.24 1024 N/A 0.00 0.00
6:54 am 06:54 undefined 51 10.6 36 2.2 56 56 undefined N/A 30.27 1025 N/A 0.00 0.00
7:54 am 07:54 undefined 51 10.6 37 2.8 59 59 undefined N/A 30.30 1026 N/A 0.00 0.00
8:54 am 08:54 undefined 52 11.1 36 2.2 55 55 undefined N/A 30.32 1027 N/A 0.00 0.00
9:54 am 09:54 undefined 54 12.2 35 1.7 49 49 undefined N/A 30.33 1027 N/A 0.00 0.00
10:54 am 10:54 undefined 56 13.3 34 1.1 44 44 undefined N/A 30.34 1027 N/A 0.00 0.00
11:54 am 11:54 undefined 59 15 34 1.1 39 39 undefined N/A 30.35 1028 N/A 0.00 0.00
12:54 pm 12:54 undefined 61 16.1 33 0.6 35 35 undefined N/A 30.33 1027 N/A 0.00 0.00
1:54 pm 13:54 undefined 61 16.1 31 -0.6 32 32 undefined N/A 30.32 1027 N/A 0.00 0.00
2:54 pm 14:54 undefined 62 16.7 31 -0.6 31 31 undefined N/A 30.30 1026 N/A 0.00 0.00
3:54 pm 15:54 undefined 63 17.2 33 0.6 33 33 undefined N/A 30.29 1026 N/A 0.00 0.00
4:54 pm 16:54 undefined 63 17.2 32 0 31 31 undefined N/A 30.30 1026 N/A 0.00 0.00
5:54 pm 17:54 undefined 62 16.7 32 0 32 32 undefined N/A 30.31 1026 N/A 0.00 0.00
6:54 pm 18:54 undefined 62 16.7 33 0.6 34 34 undefined N/A 30.32 1027 N/A 0.00 0.00
7:54 pm 19:54 undefined 60 15.6 34 1.1 38 38 undefined N/A 30.34 1028 N/A 0.00 0.00
8:54 pm 20:54 undefined 58 14.4 35 1.7 42 42 undefined N/A 30.36 1028 N/A 0.00 0.00
9:54 pm 21:54 undefined 56 13.3 36 2.2 47 47 undefined N/A 30.38 1029 N/A 0.00 0.00
10:54 pm 22:54 undefined 56 13.3 36 2.2 47 47 undefined N/A 30.39 1029 N/A 0.00 0.00
11:54 pm 23:54 undefined 56 13.3 36 2.2 47 47 undefined N/A 30.39 1029 N/A 0.00 0.00

Powered by AerisWeather